This demonstration page uses our WeatherBlox Daily Observations layout. Learn more.

Left ArrowRight Arrow

Hourly Observations for October 29, 2015

Temp ( °F °C ) Dew Point ( °F °C ) Humidity (%) Winds ( mph kmh ) Pressure ( in mb ) Visibility ( mi km ) Precip ( " mm )
12:15 am 00:15 Clear 34 1 19 -7 56 56 WNW 6 9 29.94 1014 10 16 0.00 0.00
12:35 am 00:35 Clear 32 0 18 -8 55 55 W 8 13 29.97 1015 10 16 0.00 0.00
12:55 am 00:55 Clear 30 -1 19 -7 64 64 W 6 9 29.97 1015 10 16 0.00 0.00
1:15 am 01:15 Clear 32 0 19 -7 60 60 W 9 15 29.97 1015 10 16 0.00 0.00
1:35 am 01:35 Clear 32 0 19 -7 60 60 WNW 8 13 30.00 1016 10 16 0.00 0.00
1:55 am 01:55 Clear 32 0 21 -6 64 64 WNW 10 17 30.00 1016 10 16 0.00 0.00
2:15 am 02:15 Clear 32 0 19 -7 60 60 WNW 8 13 30.00 1016 10 16 0.00 0.00
2:35 am 02:35 Clear 30 -1 19 -7 64 64 WNW 10 17 30.00 1016 10 16 0.00 0.00
2:55 am 02:55 Clear 32 0 19 -7 60 60 NW 12 19 30.03 1017 10 16 0.00 0.00
3:15 am 03:15 Clear 32 0 19 -7 60 60 WNW 7 11 30.03 1017 10 16 0.00 0.00
3:35 am 03:35 Clear 30 -1 19 -7 64 64 W 7 11 30.03 1017 10 16 0.00 0.00
3:55 am 03:55 Clear 28 -2 19 -7 69 69 W 9 15 30.03 1017 10 16 0.00 0.00
4:15 am 04:15 Clear 28 -2 19 -7 69 69 WNW 9 15 30.03 1017 10 16 0.00 0.00
4:35 am 04:35 Clear 28 -2 19 -7 69 69 W 10 17 30.03 1017 10 16 0.00 0.00
4:55 am 04:55 Clear 30 -1 19 -7 64 64 WNW 10 17 30.03 1017 10 16 0.00 0.00
5:15 am 05:15 Clear 30 -1 19 -7 64 64 W 12 19 30.03 1017 10 16 0.00 0.00
5:35 am 05:35 Clear 28 -2 19 -7 69 69 W 12 19 30.03 1017 10 16 0.00 0.00
5:55 am 05:55 Clear 28 -2 19 -7 69 69 W 12 19 30.06 1018 10 16 0.00 0.00
6:15 am 06:15 Clear 28 -2 19 -7 69 69 WNW 12 19 30.06 1018 10 16 0.00 0.00
6:35 am 06:35 Clear 28 -2 19 -7 69 69 WNW 9 15 30.06 1018 10 16 0.00 0.00
6:55 am 06:55 Clear 27 -3 19 -7 74 74 WNW 12 19 30.09 1019 10 16 0.00 0.00
7:15 am 07:15 Clear 28 -2 19 -7 69 69 WNW 9 15 30.09 1019 10 16 0.00 0.00
7:35 am 07:35 Clear 27 -3 19 -7 74 74 WNW 9 15 30.12 1020 10 16 0.00 0.00
7:55 am 07:55 Clear 27 -3 19 -7 74 74 WNW 7 11 30.12 1020 10 16 0.00 0.00
8:15 am 08:15 Sunny 27 -3 19 -7 74 74 WNW 8 13 30.12 1020 10 16 0.00 0.00
8:35 am 08:35 Sunny 27 -3 19 -7 74 74 WNW 9 15 30.12 1020 10 16 0.00 0.00
8:55 am 08:55 Sunny 28 -2 19 -7 69 69 WNW 9 15 30.15 1021 10 16 0.00 0.00
9:15 am 09:15 Sunny 28 -2 19 -7 69 69 NW 9 15 30.15 1021 10 16 0.00 0.00
9:35 am 09:35 Sunny 30 -1 21 -6 69 69 NW 12 19 30.12 1020 10 16 0.00 0.00
9:55 am 09:55 Sunny 34 1 21 -6 60 60 NW 13 20 30.12 1020 10 16 0.00 0.00
10:15 am 10:15 Sunny 34 1 21 -6 60 60 NW 15 24 30.12 1020 10 16 0.00 0.00
10:35 am 10:35 Sunny 36 2 23 -5 60 60 NW 13 20 30.12 1020 10 16 0.00 0.00
10:55 am 10:55 Sunny 36 2 21 -6 56 56 NNW 12 19 30.12 1020 10 16 0.00 0.00
11:15 am 11:15 Sunny 37 3 23 -5 56 56 NW 12 19 30.12 1020 10 16 0.00 0.00
11:35 am 11:35 Sunny 37 3 23 -5 56 56 NNW 10 17 30.12 1020 10 16 0.00 0.00
11:55 am 11:55 Sunny 39 4 25 -4 56 56 NW 7 11 30.12 1020 10 16 0.00 0.00
12:15 pm 12:15 Sunny 39 4 25 -4 56 56 WNW 12 19 30.12 1020 10 16 0.00 0.00
12:35 pm 12:35 Sunny 43 6 25 -4 49 49 W 3 6 30.09 1019 10 16 0.00 0.00
12:55 pm 12:55 Sunny 43 6 25 -4 49 49 W 7 11 30.06 1018 10 16 0.00 0.00
1:15 pm 13:15 Sunny 43 6 25 -4 49 49 W 12 19 30.06 1018 10 16 0.00 0.00
1:35 pm 13:35 Sunny 45 7 25 -4 46 46 WNW 10 17 30.06 1018 10 16 0.00 0.00
2:15 pm 14:15 Sunny 46 8 25 -4 43 43 NW 6 9 30.03 1017 10 16 0.00 0.00
2:35 pm 14:35 Sunny 46 8 25 -4 43 43 NW 9 15 30.03 1017 10 16 0.00 0.00
2:55 pm 14:55 Sunny 46 8 25 -4 43 43 W 8 13 30.03 1017 10 16 0.00 0.00
3:15 pm 15:15 Sunny 48 9 25 -4 40 40 NNW 3 6 29.97 1015 10 16 0.00 0.00
3:35 pm 15:35 Sunny 48 9 25 -4 40 40 W 8 13 29.97 1015 10 16 0.00 0.00
3:55 pm 15:55 Sunny 48 9 25 -4 40 40 WNW 6 9 29.97 1015 10 16 0.00 0.00
4:15 pm 16:15 Sunny 48 9 25 -4 40 40 Calm 29.97 1015 10 16 0.00 0.00
4:35 pm 16:35 Sunny 48 9 25 -4 40 40 W 5 7 29.97 1015 10 16 0.00 0.00
4:55 pm 16:55 Sunny 48 9 25 -4 40 40 NW 5 7 29.97 1015 10 16 0.00 0.00
5:15 pm 17:15 Sunny 48 9 25 -4 40 40 Calm 29.97 1015 10 16 0.00 0.00
5:35 pm 17:35 Sunny 48 9 25 -4 40 40 Calm 29.97 1015 10 16 0.00 0.00
5:55 pm 17:55 Sunny 48 9 25 -4 40 40 Calm 29.97 1015 10 16 0.00 0.00
6:15 pm 18:15 Sunny 48 9 23 -5 37 37 Calm 29.97 1015 10 16 0.00 0.00
6:35 pm 18:35 Sunny 45 7 23 -5 42 42 Calm 30.00 1016 10 16 0.00 0.00
6:55 pm 18:55 Clear 45 7 23 -5 42 42 ESE 5 7 30.00 1016 10 16 0.00 0.00
7:15 pm 19:15 Clear 43 6 23 -5 46 46 ESE 5 7 30.00 1016 10 16 0.00 0.00
7:35 pm 19:35 Clear 39 4 23 -5 52 52 ESE 6 9 30.03 1017 10 16 0.00 0.00
7:55 pm 19:55 Clear 39 4 25 -4 56 56 ESE 5 7 30.03 1017 10 16 0.00 0.00
8:15 pm 20:15 Clear 39 4 25 -4 56 56 ESE 7 11 30.03 1017 10 16 0.00 0.00
8:35 pm 20:35 Clear 37 3 25 -4 60 60 ESE 5 7 30.03 1017 10 16 0.00 0.00
8:55 pm 20:55 Clear 39 4 25 -4 56 56 ESE 5 7 30.03 1017 10 16 0.00 0.00
9:15 pm 21:15 Clear 37 3 25 -4 60 60 SE 7 11 30.03 1017 10 16 0.00 0.00
9:35 pm 21:35 Clear 37 3 25 -4 60 60 SE 7 11 30.03 1017 10 16 0.00 0.00
9:55 pm 21:55 Clear 36 2 25 -4 65 65 SSE 7 11 30.03 1017 10 16 0.00 0.00
10:15 pm 22:15 Clear 36 2 25 -4 65 65 SSE 6 9 30.03 1017 10 16 0.00 0.00
10:35 pm 22:35 Clear 36 2 25 -4 65 65 SSE 6 9 30.03 1017 10 16 0.00 0.00
10:55 pm 22:55 Clear 34 1 23 -5 65 65 SSE 3 6 30.03 1017 10 16 0.00 0.00
11:15 pm 23:15 Clear 36 2 23 -5 60 60 Calm 30.03 1017 10 16 0.00 0.00
11:35 pm 23:35 Clear 36 2 23 -5 60 60 S 5 7 30.06 1018 10 16 0.00 0.00
11:55 pm 23:55 Clear 34 1 21 -6 60 60 S 7 11 30.09 1019 10 16 0.00 0.00

Powered by AerisWeather